Back to catalog

NOAA 16 DEB

AlivePO
NORAD 42358·DEBRIS·🇺🇸 United States

Launched Sep 21, 2000 from Vandenberg Space Force Base

Loading…

Next Passes (next 24 hours)

TLE

FreshSource: Space-Track

Epoch: Sep 13, 2026, 16:11 UTC

1 42358U 00055RA  26256.67441883  .00015560  00000-0  26600-2 0  9997
2 42358  98.8489  46.9425 0022595  44.8098 315.4924 14.68803447514054

Track NOAA 16 DEB in real time with AllMySat

Download on the App Store